DateTime, Accumulation (mm), Intensity (mm/hr), 30s_intervals_count 
2019-10-01 00:00,,,21
2019-10-01 00:15,0.024,0.098,30
2019-10-01 00:30,0.109,0.436,30
2019-10-01 00:45,0.274,1.097,30
2019-10-01 01:00,0.383,1.532,30
2019-10-01 01:15,0.496,1.985,30
2019-10-01 01:30,0.445,1.782,30
2019-10-01 01:45,0.362,1.448,30
2019-10-01 02:00,0.338,1.350,30
2019-10-01 02:15,0.265,1.059,30
2019-10-01 02:30,0.140,0.561,30
2019-10-01 02:45,0.102,0.407,30
2019-10-01 03:00,0.040,0.160,30
2019-10-01 03:15,0.004,0.017,30
2019-10-01 03:30,0.003,0.012,30
2019-10-01 03:45,0.001,0.005,30
2019-10-01 04:00,0.004,0.018,30
2019-10-01 04:15,0.002,0.008,30
2019-10-01 04:30,0.002,0.007,30
2019-10-01 04:45,0.001,0.005,30
2019-10-01 05:00,0.000,0.001,30
2019-10-01 05:15,0.000,0.001,30
2019-10-01 05:30,0.001,0.005,30
2019-10-01 05:45,0.006,0.024,30
2019-10-01 06:00,0.006,0.024,30
2019-10-01 06:15,0.015,0.058,30
2019-10-01 06:30,0.016,0.062,30
2019-10-01 06:45,0.010,0.040,30
2019-10-01 07:00,0.010,0.040,30
2019-10-01 07:15,0.019,0.076,30
2019-10-01 07:30,0.022,0.087,30
2019-10-01 07:45,0.038,0.153,30
2019-10-01 08:00,0.115,0.460,30
2019-10-01 08:15,0.180,0.721,30
2019-10-01 08:30,0.236,0.945,30
2019-10-01 08:45,0.156,0.624,30
2019-10-01 09:00,0.158,0.633,30
2019-10-01 09:15,0.205,0.820,30
2019-10-01 09:30,0.223,0.892,30
2019-10-01 09:45,0.326,1.304,30
2019-10-01 10:00,0.522,2.089,30
2019-10-01 10:15,0.673,2.692,30
2019-10-01 10:30,0.580,2.318,30
2019-10-01 10:45,0.404,1.618,30
2019-10-01 11:00,0.302,1.209,30
2019-10-01 11:15,0.213,0.854,30
2019-10-01 11:30,0.117,0.469,30
2019-10-01 11:45,0.076,0.306,30
2019-10-01 12:00,0.055,0.219,30
2019-10-01 12:15,0.096,0.384,30
2019-10-01 12:30,0.070,0.279,30
2019-10-01 12:45,0.011,0.046,30
2019-10-01 13:00,0.000,0.001,30
2019-10-01 13:15,0.000,0.000,30
2019-10-01 13:30,0.000,0.000,30
2019-10-01 13:45,0.000,0.000,30
2019-10-01 14:00,0.000,0.000,30
2019-10-01 14:15,0.000,0.000,30
2019-10-01 14:30,0.000,0.000,30
2019-10-01 14:45,0.000,0.000,30
2019-10-01 15:00,0.000,0.000,30
2019-10-01 15:15,0.000,0.000,30
2019-10-01 15:30,0.000,0.000,30
2019-10-01 15:45,0.000,0.000,30
2019-10-01 16:00,0.000,0.000,30
2019-10-01 16:15,0.000,0.000,30
2019-10-01 16:30,0.000,0.000,30
2019-10-01 16:45,0.000,0.000,30
2019-10-01 17:00,0.000,0.000,30
2019-10-01 17:15,0.000,0.000,30
2019-10-01 17:30,0.000,0.000,30
2019-10-01 17:45,0.000,0.000,30
2019-10-01 18:00,0.000,0.000,30
2019-10-01 18:15,0.000,0.000,30
2019-10-01 18:30,0.000,0.000,30
2019-10-01 18:45,0.000,0.000,30
2019-10-01 19:00,0.000,0.000,30
2019-10-01 19:15,0.000,0.000,30
2019-10-01 19:30,0.000,0.000,30
2019-10-01 19:45,0.000,0.000,30
2019-10-01 20:00,0.000,0.000,30
2019-10-01 20:15,0.000,0.000,30
2019-10-01 20:30,0.000,0.000,30
2019-10-01 20:45,0.000,0.000,30
2019-10-01 21:00,0.000,0.000,30
2019-10-01 21:15,0.000,0.000,30
2019-10-01 21:30,0.000,0.000,30
2019-10-01 21:45,0.000,0.000,30
2019-10-01 22:00,0.000,0.000,30
2019-10-01 22:15,0.000,0.000,30
2019-10-01 22:30,0.000,0.000,30
2019-10-01 22:45,0.000,0.000,30
2019-10-01 23:00,0.000,0.000,30
2019-10-01 23:15,0.000,0.000,30
2019-10-01 23:30,0.000,0.000,30
2019-10-01 23:45,0.000,0.000,30
2019-10-02 00:00,0.000,0.000,30
2019-10-02 00:15,0.000,0.000,30
2019-10-02 00:30,0.000,0.000,30
2019-10-02 00:45,0.000,0.000,30
2019-10-02 01:00,0.000,0.000,30
2019-10-02 01:15,0.000,0.000,30
2019-10-02 01:30,0.000,0.000,30
2019-10-02 01:45,0.000,0.000,30
2019-10-02 02:00,0.000,0.000,30
2019-10-02 02:15,0.000,0.000,30
2019-10-02 02:30,0.000,0.000,30
2019-10-02 02:45,0.000,0.000,30
2019-10-02 03:00,0.000,0.000,30
2019-10-02 03:15,0.000,0.000,30
2019-10-02 03:30,0.000,0.000,30
2019-10-02 03:45,0.000,0.000,30
2019-10-02 04:00,0.000,0.000,30
2019-10-02 04:15,0.000,0.000,30
2019-10-02 04:30,0.000,0.000,30
2019-10-02 04:45,0.000,0.000,30
2019-10-02 05:00,0.000,0.000,30
2019-10-02 05:15,0.000,0.000,30
2019-10-02 05:30,0.000,0.000,30
2019-10-02 05:45,0.000,0.000,30
2019-10-02 06:00,0.000,0.000,30
2019-10-02 06:15,0.000,0.000,30
2019-10-02 06:30,0.000,0.000,30
2019-10-02 06:45,0.000,0.000,30
2019-10-02 07:00,0.000,0.000,30
2019-10-02 07:15,0.000,0.000,30
2019-10-02 07:30,0.000,0.000,30
2019-10-02 07:45,0.000,0.000,30
2019-10-02 08:00,0.000,0.000,30
2019-10-02 08:15,0.000,0.000,30
2019-10-02 08:30,0.000,0.000,30
2019-10-02 08:45,0.000,0.000,30
2019-10-02 09:00,0.000,0.000,30
2019-10-02 09:15,0.000,0.000,30
2019-10-02 09:30,0.000,0.000,30
2019-10-02 09:45,0.000,0.000,30
2019-10-02 10:00,0.000,0.000,30
2019-10-02 10:15,0.000,0.000,30
2019-10-02 10:30,0.000,0.000,30
2019-10-02 10:45,0.000,0.000,30
2019-10-02 11:00,0.000,0.000,30
2019-10-02 11:15,0.000,0.000,30
2019-10-02 11:30,0.000,0.000,30
2019-10-02 11:45,0.000,0.000,30
2019-10-02 12:00,0.000,0.000,30
2019-10-02 12:15,0.000,0.000,30
2019-10-02 12:30,0.000,0.000,30
2019-10-02 12:45,0.000,0.000,30
2019-10-02 13:00,0.000,0.000,30
2019-10-02 13:15,0.000,0.000,30
2019-10-02 13:30,0.000,0.000,30
2019-10-02 13:45,0.000,0.000,30
2019-10-02 14:00,0.000,0.000,30
2019-10-02 14:15,0.000,0.000,30
2019-10-02 14:30,0.000,0.000,30
2019-10-02 14:45,0.000,0.000,30
2019-10-02 15:00,0.000,0.000,30
2019-10-02 15:15,0.000,0.000,30
2019-10-02 15:30,0.000,0.000,30
2019-10-02 15:45,0.000,0.000,30
2019-10-02 16:00,0.000,0.000,30
2019-10-02 16:15,0.000,0.000,30
2019-10-02 16:30,0.000,0.000,30
2019-10-02 16:45,0.000,0.000,30
2019-10-02 17:00,0.000,0.000,30
2019-10-02 17:15,0.000,0.000,30
2019-10-02 17:30,0.000,0.000,30
2019-10-02 17:45,0.000,0.000,30
2019-10-02 18:00,0.000,0.000,30
2019-10-02 18:15,0.000,0.000,30
2019-10-02 18:30,0.000,0.000,30
2019-10-02 18:45,0.000,0.000,30
2019-10-02 19:00,0.000,0.000,30
2019-10-02 19:15,0.000,0.000,30
2019-10-02 19:30,0.000,0.000,30
2019-10-02 19:45,0.000,0.000,30
2019-10-02 20:00,0.000,0.000,30
2019-10-02 20:15,0.000,0.000,30
2019-10-02 20:30,0.000,0.000,30
2019-10-02 20:45,0.000,0.000,30
2019-10-02 21:00,0.000,0.000,30
2019-10-02 21:15,0.000,0.000,30
2019-10-02 21:30,0.000,0.000,30
2019-10-02 21:45,0.000,0.000,30
2019-10-02 22:00,0.000,0.000,30
2019-10-02 22:15,0.000,0.000,30
2019-10-02 22:30,0.000,0.000,30
2019-10-02 22:45,0.000,0.000,30
2019-10-02 23:00,0.000,0.000,30
2019-10-02 23:15,0.000,0.000,30
2019-10-02 23:30,0.000,0.000,30
2019-10-02 23:45,0.000,0.000,30
2019-10-03 00:00,0.000,0.000,30
2019-10-03 00:15,0.000,0.000,30
2019-10-03 00:30,0.000,0.000,30
2019-10-03 00:45,0.000,0.000,30
2019-10-03 01:00,0.000,0.000,30
2019-10-03 01:15,0.000,0.000,30
2019-10-03 01:30,0.000,0.000,30
2019-10-03 01:45,0.000,0.000,30
2019-10-03 02:00,0.000,0.000,30
2019-10-03 02:15,0.000,0.000,30
2019-10-03 02:30,0.000,0.000,30
2019-10-03 02:45,0.000,0.000,30
2019-10-03 03:00,0.000,0.000,30
2019-10-03 03:15,0.000,0.000,30
2019-10-03 03:30,0.000,0.000,30
2019-10-03 03:45,0.000,0.000,30
2019-10-03 04:00,0.000,0.000,30
2019-10-03 04:15,0.000,0.000,30
2019-10-03 04:30,0.000,0.000,30
2019-10-03 04:45,0.000,0.000,30
2019-10-03 05:00,0.000,0.000,30
2019-10-03 05:15,0.000,0.000,30
2019-10-03 05:30,0.000,0.000,30
2019-10-03 05:45,0.000,0.000,30
2019-10-03 06:00,0.000,0.000,30
2019-10-03 06:15,0.000,0.000,30
2019-10-03 06:30,0.000,0.000,30
2019-10-03 06:45,0.000,0.000,30
2019-10-03 07:00,0.000,0.000,30
2019-10-03 07:15,0.000,0.000,30
2019-10-03 07:30,0.000,0.000,30
2019-10-03 07:45,0.000,0.000,30
2019-10-03 08:00,0.000,0.000,30
2019-10-03 08:15,0.000,0.000,30
2019-10-03 08:30,0.000,0.000,30
2019-10-03 08:45,0.000,0.000,30
2019-10-03 09:00,0.000,0.000,30
2019-10-03 09:15,0.000,0.000,30
2019-10-03 09:30,0.000,0.000,30
2019-10-03 09:45,0.000,0.000,30
2019-10-03 10:00,0.000,0.000,30
2019-10-03 10:15,0.000,0.000,30
2019-10-03 10:30,0.000,0.000,30
2019-10-03 10:45,0.000,0.000,30
2019-10-03 11:00,0.000,0.000,30
2019-10-03 11:15,0.000,0.000,30
2019-10-03 11:30,0.000,0.000,30
2019-10-03 11:45,0.000,0.000,30
2019-10-03 12:00,0.000,0.000,30
2019-10-03 12:15,0.019,0.076,30
2019-10-03 12:30,0.069,0.276,30
2019-10-03 12:45,0.007,0.030,30
2019-10-03 13:00,0.000,0.000,30
2019-10-03 13:15,0.000,0.000,30
2019-10-03 13:30,0.000,0.000,30
2019-10-03 13:45,0.000,0.000,30
2019-10-03 14:00,0.000,0.000,30
2019-10-03 14:15,0.000,0.000,30
2019-10-03 14:30,0.000,0.000,30
2019-10-03 14:45,0.000,0.000,30
2019-10-03 15:00,0.000,0.000,30
2019-10-03 15:15,0.000,0.000,30
2019-10-03 15:30,0.002,0.009,30
2019-10-03 15:45,0.046,0.186,30
2019-10-03 16:00,0.137,0.547,30
2019-10-03 16:15,0.059,0.236,30
2019-10-03 16:30,0.073,0.290,30
2019-10-03 16:45,0.030,0.119,30
2019-10-03 17:00,0.000,0.000,30
2019-10-03 17:15,0.000,0.002,30
2019-10-03 17:30,0.002,0.009,30
2019-10-03 17:45,0.032,0.128,30
2019-10-03 18:00,0.085,0.338,30
2019-10-03 18:15,0.129,0.517,30
2019-10-03 18:30,0.169,0.676,30
2019-10-03 18:45,0.082,0.327,30
2019-10-03 19:00,0.078,0.310,30
2019-10-03 19:15,0.119,0.477,30
2019-10-03 19:30,0.104,0.415,30
2019-10-03 19:45,0.089,0.356,30
2019-10-03 20:00,0.097,0.388,30
2019-10-03 20:15,0.058,0.231,30
2019-10-03 20:30,0.037,0.146,30
2019-10-03 20:45,0.013,0.052,30
2019-10-03 21:00,0.012,0.048,30
2019-10-03 21:15,0.014,0.058,30
2019-10-03 21:30,0.015,0.062,30
2019-10-03 21:45,0.033,0.133,30
2019-10-03 22:00,0.073,0.291,30
2019-10-03 22:15,0.152,0.608,30
2019-10-03 22:30,0.139,0.555,30
2019-10-03 22:45,0.038,0.153,30
2019-10-03 23:00,0.019,0.077,30
2019-10-03 23:15,0.016,0.065,30
2019-10-03 23:30,0.008,0.033,30
2019-10-03 23:45,0.021,0.085,30
2019-10-04 00:00,0.055,0.220,30
2019-10-04 00:15,0.046,0.184,30
2019-10-04 00:30,0.038,0.151,30
2019-10-04 00:45,0.070,0.282,30
2019-10-04 01:00,0.088,0.353,30
2019-10-04 01:15,0.026,0.106,30
2019-10-04 01:30,0.010,0.040,30
2019-10-04 01:45,0.011,0.046,30
2019-10-04 02:00,0.013,0.054,30
2019-10-04 02:15,0.012,0.048,30
2019-10-04 02:30,0.018,0.071,30
2019-10-04 02:45,0.037,0.148,30
2019-10-04 03:00,0.044,0.178,30
2019-10-04 03:15,0.081,0.322,30
2019-10-04 03:30,0.111,0.443,30
2019-10-04 03:45,0.146,0.583,30
2019-10-04 04:00,0.194,0.775,30
2019-10-04 04:15,0.152,0.607,30
2019-10-04 04:30,0.143,0.571,30
2019-10-04 04:45,0.127,0.507,30
2019-10-04 05:00,0.156,0.624,30
2019-10-04 05:15,0.170,0.682,30
2019-10-04 05:30,0.087,0.347,30
2019-10-04 05:45,0.053,0.211,30
2019-10-04 06:00,0.043,0.171,30
2019-10-04 06:15,0.048,0.194,30
2019-10-04 06:30,0.055,0.219,30
2019-10-04 06:45,0.051,0.204,30
2019-10-04 07:00,0.038,0.153,30
2019-10-04 07:15,0.044,0.177,30
2019-10-04 07:30,0.033,0.132,30
2019-10-04 07:45,0.019,0.075,30
2019-10-04 08:00,0.012,0.048,30
2019-10-04 08:15,0.005,0.020,30
2019-10-04 08:30,0.002,0.008,30
2019-10-04 08:45,0.001,0.003,30
2019-10-04 09:00,0.000,0.000,30
2019-10-04 09:15,0.000,0.000,30
2019-10-04 09:30,0.000,0.000,30
2019-10-04 09:45,0.000,0.000,30
2019-10-04 10:00,0.000,0.000,30
2019-10-04 10:15,0.001,0.005,30
2019-10-04 10:30,0.015,0.061,30
2019-10-04 10:45,0.025,0.099,30
2019-10-04 11:00,0.027,0.109,30
2019-10-04 11:15,0.032,0.127,30
2019-10-04 11:30,0.009,0.036,30
2019-10-04 11:45,0.001,0.004,30
2019-10-04 12:00,0.000,0.000,30
2019-10-04 12:15,0.000,0.000,30
2019-10-04 12:30,0.000,0.000,30
2019-10-04 12:45,0.000,0.000,30
2019-10-04 13:00,0.000,0.000,30
2019-10-04 13:15,0.000,0.000,30
2019-10-04 13:30,0.000,0.000,30
2019-10-04 13:45,0.000,0.000,30
2019-10-04 14:00,0.000,0.000,30
2019-10-04 14:15,0.000,0.000,30
2019-10-04 14:30,0.000,0.000,30
2019-10-04 14:45,0.000,0.000,30
2019-10-04 15:00,0.000,0.000,30
2019-10-04 15:15,0.000,0.000,30
2019-10-04 15:30,0.000,0.000,30
2019-10-04 15:45,0.000,0.000,30
2019-10-04 16:00,0.000,0.000,30
2019-10-04 16:15,0.000,0.000,30
2019-10-04 16:30,0.000,0.000,30
2019-10-04 16:45,0.000,0.000,30
2019-10-04 17:00,0.000,0.000,30
2019-10-04 17:15,0.000,0.000,30
2019-10-04 17:30,0.000,0.000,30
2019-10-04 17:45,0.000,0.000,30
2019-10-04 18:00,0.000,0.000,30
2019-10-04 18:15,0.000,0.000,30
2019-10-04 18:30,0.000,0.000,30
2019-10-04 18:45,0.000,0.000,30
2019-10-04 19:00,0.000,0.000,30
2019-10-04 19:15,0.000,0.000,30
2019-10-04 19:30,0.000,0.000,30
2019-10-04 19:45,0.000,0.000,30
2019-10-04 20:00,0.000,0.000,30
2019-10-04 20:15,0.000,0.000,30
2019-10-04 20:30,0.000,0.000,30
2019-10-04 20:45,0.000,0.000,30
2019-10-04 21:00,0.000,0.000,30
2019-10-04 21:15,0.000,0.000,30
2019-10-04 21:30,0.000,0.000,30
2019-10-04 21:45,0.000,0.000,30
2019-10-04 22:00,0.000,0.000,30
2019-10-04 22:15,0.000,0.000,30
2019-10-04 22:30,0.000,0.000,30
2019-10-04 22:45,0.000,0.000,30
2019-10-04 23:00,0.000,0.000,30
2019-10-04 23:15,0.000,0.000,30
2019-10-04 23:30,0.000,0.000,30
2019-10-04 23:45,0.000,0.000,30
2019-10-05 00:00,0.000,0.000,30
2019-10-05 00:15,0.000,0.000,30
2019-10-05 00:30,0.000,0.000,30
2019-10-05 00:45,0.000,0.000,30
2019-10-05 01:00,0.000,0.000,30
2019-10-05 01:15,0.000,0.000,30
2019-10-05 01:30,0.000,0.000,30
2019-10-05 01:45,0.000,0.000,30
2019-10-05 02:00,0.000,0.000,30
2019-10-05 02:15,0.000,0.000,30
2019-10-05 02:30,0.000,0.000,30
2019-10-05 02:45,0.000,0.000,30
2019-10-05 03:00,0.000,0.000,30
2019-10-05 03:15,0.000,0.000,30
2019-10-05 03:30,0.000,0.000,30
2019-10-05 03:45,0.000,0.000,30
2019-10-05 04:00,0.000,0.000,30
2019-10-05 04:15,0.000,0.000,30
2019-10-05 04:30,0.000,0.000,30
2019-10-05 04:45,0.000,0.000,30
2019-10-05 05:00,0.000,0.000,30
2019-10-05 05:15,0.000,0.000,30
2019-10-05 05:30,0.000,0.000,30
2019-10-05 05:45,0.000,0.000,30
2019-10-05 06:00,0.000,0.000,30
2019-10-05 06:15,0.000,0.000,30
2019-10-05 06:30,0.000,0.000,30
2019-10-05 06:45,0.000,0.000,30
2019-10-05 07:00,0.000,0.000,30
2019-10-05 07:15,0.000,0.000,30
2019-10-05 07:30,0.000,0.000,30
2019-10-05 07:45,0.000,0.000,30
2019-10-05 08:00,0.000,0.000,30
2019-10-05 08:15,0.000,0.000,30
2019-10-05 08:30,0.000,0.000,30
2019-10-05 08:45,0.000,0.000,30
2019-10-05 09:00,0.000,0.000,30
2019-10-05 09:15,0.000,0.000,30
2019-10-05 09:30,0.000,0.000,30
2019-10-05 09:45,0.000,0.000,30
2019-10-05 10:00,0.000,0.000,30
2019-10-05 10:15,0.000,0.000,30
2019-10-05 10:30,0.000,0.000,30
2019-10-05 10:45,0.000,0.000,30
2019-10-05 11:00,0.000,0.000,30
2019-10-05 11:15,0.000,0.000,30
2019-10-05 11:30,0.000,0.000,30
2019-10-05 11:45,0.000,0.000,30
2019-10-05 12:00,0.000,0.000,30
2019-10-05 12:15,0.000,0.000,30
2019-10-05 12:30,0.000,0.000,30
2019-10-05 12:45,0.000,0.000,30
2019-10-05 13:00,0.000,0.000,30
2019-10-05 13:15,0.000,0.000,30
2019-10-05 13:30,0.000,0.000,30
2019-10-05 13:45,0.000,0.000,30
2019-10-05 14:00,0.000,0.000,30
2019-10-05 14:15,0.000,0.001,30
2019-10-05 14:30,0.001,0.002,30
2019-10-05 14:45,0.003,0.011,30
2019-10-05 15:00,0.004,0.014,30
2019-10-05 15:15,0.005,0.020,30
2019-10-05 15:30,0.011,0.046,30
2019-10-05 15:45,0.014,0.057,30
2019-10-05 16:00,0.016,0.066,30
2019-10-05 16:15,0.032,0.130,30
2019-10-05 16:30,0.046,0.186,30
2019-10-05 16:45,0.027,0.108,30
2019-10-05 17:00,0.006,0.024,30
2019-10-05 17:15,0.001,0.002,30
2019-10-05 17:30,0.002,0.007,30
2019-10-05 17:45,0.004,0.016,30
2019-10-05 18:00,0.004,0.015,30
2019-10-05 18:15,0.009,0.034,30
2019-10-05 18:30,0.011,0.042,30
2019-10-05 18:45,0.013,0.051,30
2019-10-05 19:00,0.016,0.066,30
2019-10-05 19:15,0.037,0.148,30
2019-10-05 19:30,0.053,0.214,30
2019-10-05 19:45,0.080,0.322,30
2019-10-05 20:00,0.131,0.525,30
2019-10-05 20:15,0.168,0.674,30
2019-10-05 20:30,0.201,0.803,30
2019-10-05 20:45,0.198,0.790,30
2019-10-05 21:00,0.192,0.769,30
2019-10-05 21:15,0.203,0.812,30
2019-10-05 21:30,0.277,1.107,30
2019-10-05 21:45,0.309,1.235,30
2019-10-05 22:00,0.348,1.390,30
2019-10-05 22:15,0.349,1.395,30
2019-10-05 22:30,0.355,1.419,30
2019-10-05 22:45,0.267,1.068,30
2019-10-05 23:00,0.241,0.964,30
2019-10-05 23:15,0.274,1.095,30
2019-10-05 23:30,0.313,1.251,30
2019-10-05 23:45,0.190,0.759,30
2019-10-06 00:00,,,20
2019-10-06 00:15,0.037,0.147,30
2019-10-06 00:30,0.036,0.146,30
2019-10-06 00:45,0.070,0.280,30
2019-10-06 01:00,0.117,0.468,30
2019-10-06 01:15,0.206,0.823,30
2019-10-06 01:30,0.199,0.796,30
2019-10-06 01:45,0.165,0.662,30
2019-10-06 02:00,0.148,0.590,30
2019-10-06 02:15,0.129,0.516,30
2019-10-06 02:30,0.073,0.291,30
2019-10-06 02:45,0.190,0.758,30
2019-10-06 03:00,0.328,1.314,30
2019-10-06 03:15,0.321,1.286,30
2019-10-06 03:30,0.250,1.000,30
2019-10-06 03:45,0.263,1.054,30
2019-10-06 04:00,0.101,0.405,30
2019-10-06 04:15,0.022,0.087,30
2019-10-06 04:30,0.013,0.052,30
2019-10-06 04:45,0.020,0.081,30
2019-10-06 05:00,0.019,0.075,30
2019-10-06 05:15,0.003,0.013,30
2019-10-06 05:30,0.000,0.002,30
2019-10-06 05:45,0.001,0.006,30
2019-10-06 06:00,0.001,0.003,30
2019-10-06 06:15,0.000,0.000,30
2019-10-06 06:30,0.000,0.001,30
2019-10-06 06:45,0.000,0.000,30
2019-10-06 07:00,0.000,0.000,30
2019-10-06 07:15,0.000,0.000,30
2019-10-06 07:30,0.003,0.010,30
2019-10-06 07:45,0.002,0.007,30
2019-10-06 08:00,0.000,0.000,30
2019-10-06 08:15,0.000,0.000,30
2019-10-06 08:30,0.000,0.000,30
2019-10-06 08:45,0.000,0.000,30
2019-10-06 09:00,0.000,0.000,30
2019-10-06 09:15,0.000,0.000,30
2019-10-06 09:30,0.000,0.000,30
2019-10-06 09:45,0.000,0.000,30
2019-10-06 10:00,0.002,0.009,30
2019-10-06 10:15,0.001,0.003,30
2019-10-06 10:30,0.000,0.000,30
2019-10-06 10:45,0.000,0.000,30
2019-10-06 11:00,0.004,0.015,30
2019-10-06 11:15,0.010,0.041,30
2019-10-06 11:30,0.003,0.013,30
2019-10-06 11:45,0.001,0.002,30
2019-10-06 12:00,0.000,0.001,30
2019-10-06 12:15,0.000,0.000,30
2019-10-06 12:30,0.000,0.001,30
2019-10-06 12:45,0.002,0.008,30
2019-10-06 13:00,0.009,0.036,30
2019-10-06 13:15,0.009,0.038,30
2019-10-06 13:30,0.008,0.032,30
2019-10-06 13:45,0.010,0.041,30
2019-10-06 14:00,0.014,0.057,30
2019-10-06 14:15,0.006,0.025,30
2019-10-06 14:30,0.002,0.008,30
2019-10-06 14:45,0.003,0.013,30
2019-10-06 15:00,0.004,0.018,30
2019-10-06 15:15,0.000,0.001,30
2019-10-06 15:30,0.000,0.000,30
2019-10-06 15:45,0.000,0.000,30
2019-10-06 16:00,0.000,0.000,30
2019-10-06 16:15,0.000,0.000,30
2019-10-06 16:30,0.000,0.000,30
2019-10-06 16:45,0.000,0.000,30
2019-10-06 17:00,0.000,0.000,30
2019-10-06 17:15,0.000,0.000,30
2019-10-06 17:30,0.000,0.000,30
2019-10-06 17:45,0.000,0.000,30
2019-10-06 18:00,0.000,0.000,30
2019-10-06 18:15,0.000,0.000,30
2019-10-06 18:30,0.000,0.000,30
2019-10-06 18:45,0.000,0.000,30
2019-10-06 19:00,0.000,0.000,30
2019-10-06 19:15,0.000,0.000,30
2019-10-06 19:30,0.000,0.000,30
2019-10-06 19:45,0.000,0.000,30
2019-10-06 20:00,0.000,0.000,30
2019-10-06 20:15,0.000,0.000,30
2019-10-06 20:30,0.000,0.000,30
2019-10-06 20:45,0.000,0.000,30
2019-10-06 21:00,0.000,0.000,30
2019-10-06 21:15,0.002,0.009,30
2019-10-06 21:30,0.005,0.020,30
2019-10-06 21:45,0.002,0.009,30
2019-10-06 22:00,0.003,0.011,30
2019-10-06 22:15,0.004,0.015,30
2019-10-06 22:30,0.002,0.010,30
2019-10-06 22:45,0.000,0.002,30
2019-10-06 23:00,0.000,0.000,30
2019-10-06 23:15,0.000,0.000,30
2019-10-06 23:30,0.000,0.000,30
2019-10-06 23:45,0.000,0.000,30
2019-10-07 00:00,0.000,0.000,30
2019-10-07 00:15,0.000,0.000,30
2019-10-07 00:30,0.000,0.000,30
2019-10-07 00:45,0.000,0.000,30
2019-10-07 01:00,0.000,0.000,30
2019-10-07 01:15,0.000,0.000,30
2019-10-07 01:30,0.000,0.000,30
2019-10-07 01:45,0.000,0.001,30
2019-10-07 02:00,0.003,0.012,30
2019-10-07 02:15,0.004,0.016,30
2019-10-07 02:30,0.007,0.027,30
2019-10-07 02:45,0.002,0.009,30
2019-10-07 03:00,0.031,0.126,30
2019-10-07 03:15,0.136,0.543,30
2019-10-07 03:30,0.123,0.493,30
2019-10-07 03:45,0.087,0.348,30
2019-10-07 04:00,0.046,0.186,30
2019-10-07 04:15,0.038,0.153,30
2019-10-07 04:30,0.074,0.297,30
2019-10-07 04:45,0.137,0.547,30
2019-10-07 05:00,0.170,0.681,30
2019-10-07 05:15,0.105,0.422,30
2019-10-07 05:30,0.095,0.380,30
2019-10-07 05:45,0.038,0.151,30
2019-10-07 06:00,0.001,0.003,30
2019-10-07 06:15,0.000,0.000,30
2019-10-07 06:30,0.000,0.000,30
2019-10-07 06:45,0.000,0.000,30
2019-10-07 07:00,0.000,0.000,30
2019-10-07 07:15,0.000,0.000,30
2019-10-07 07:30,0.000,0.000,30
2019-10-07 07:45,0.000,0.000,30
2019-10-07 08:00,0.000,0.000,30
2019-10-07 08:15,0.002,0.010,30
2019-10-07 08:30,0.034,0.135,30
2019-10-07 08:45,0.065,0.259,30
2019-10-07 09:00,0.062,0.248,30
2019-10-07 09:15,0.082,0.327,30
2019-10-07 09:30,0.081,0.325,30
2019-10-07 09:45,0.047,0.188,30
2019-10-07 10:00,0.054,0.217,30
2019-10-07 10:15,0.096,0.382,30
2019-10-07 10:30,0.107,0.427,30
2019-10-07 10:45,0.109,0.437,30
2019-10-07 11:00,0.069,0.274,30
2019-10-07 11:15,0.038,0.151,30
2019-10-07 11:30,0.037,0.148,30
2019-10-07 11:45,0.057,0.227,30
2019-10-07 12:00,,,23
2019-10-07 12:15,,,
2019-10-07 12:30,,,
2019-10-07 12:45,,,
2019-10-07 13:00,,,
2019-10-07 13:45,,,
2019-10-07 14:00,,,
2019-10-07 14:15,0.000,0.000,30
2019-10-07 14:30,0.000,0.000,30
2019-10-07 14:45,0.000,0.000,30
2019-10-07 15:00,0.000,0.000,30
2019-10-07 15:15,0.000,0.000,30
2019-10-07 15:30,0.000,0.000,30
2019-10-07 15:45,0.000,0.000,30
2019-10-07 16:00,0.000,0.000,30
2019-10-07 16:15,0.000,0.000,30
2019-10-07 16:30,0.000,0.000,30
2019-10-07 16:45,0.000,0.000,30
2019-10-07 17:00,0.000,0.000,30
2019-10-07 17:15,0.000,0.000,30
2019-10-07 17:30,0.000,0.000,30
2019-10-07 17:45,0.000,0.000,30
2019-10-07 18:00,0.000,0.000,30
2019-10-07 18:15,0.000,0.000,30
2019-10-07 18:30,0.000,0.000,30
2019-10-07 18:45,0.000,0.000,30
2019-10-07 19:00,0.000,0.000,30
2019-10-07 19:15,0.000,0.000,30
2019-10-07 19:30,0.000,0.000,30
2019-10-07 19:45,0.000,0.000,30
2019-10-07 20:00,0.000,0.000,30
2019-10-07 20:15,0.000,0.000,30
2019-10-07 20:30,0.000,0.000,30
2019-10-07 20:45,0.000,0.000,30
2019-10-07 21:00,0.000,0.000,30
2019-10-07 21:15,0.000,0.000,30
2019-10-07 21:30,0.000,0.000,30
2019-10-07 21:45,0.000,0.000,30
2019-10-07 22:00,0.000,0.000,30
2019-10-07 22:15,0.000,0.000,30
2019-10-07 22:30,0.000,0.000,30
2019-10-07 22:45,0.000,0.000,30
2019-10-07 23:00,0.000,0.000,30
2019-10-07 23:15,0.000,0.000,30
2019-10-07 23:30,0.000,0.000,30
2019-10-07 23:45,0.000,0.000,30
2019-10-08 00:00,0.000,0.000,30
2019-10-08 00:15,0.000,0.000,30
2019-10-08 00:30,0.000,0.000,30
2019-10-08 00:45,0.000,0.000,30
2019-10-08 01:00,0.000,0.000,30
2019-10-08 01:15,0.000,0.000,30
2019-10-08 01:30,0.000,0.000,30
2019-10-08 01:45,0.000,0.000,30
2019-10-08 02:00,0.000,0.000,30
2019-10-08 02:15,0.003,0.011,30
2019-10-08 02:30,0.000,0.001,30
2019-10-08 02:45,0.000,0.000,30
2019-10-08 03:00,0.000,0.000,30
2019-10-08 03:15,0.002,0.007,30
2019-10-08 03:30,0.004,0.017,30
2019-10-08 03:45,0.004,0.015,30
2019-10-08 04:00,0.001,0.003,30
2019-10-08 04:15,0.001,0.006,30
2019-10-08 04:30,0.004,0.016,30
2019-10-08 04:45,0.003,0.010,30
2019-10-08 05:00,0.005,0.020,30
2019-10-08 05:15,0.014,0.054,30
2019-10-08 05:30,0.012,0.046,30
2019-10-08 05:45,0.048,0.193,30
2019-10-08 06:00,0.079,0.318,30
2019-10-08 06:15,0.019,0.076,30
2019-10-08 06:30,0.007,0.029,30
2019-10-08 06:45,0.005,0.019,30
2019-10-08 07:00,0.171,0.683,30
2019-10-08 07:15,0.119,0.475,30
2019-10-08 07:30,0.068,0.272,30
2019-10-08 07:45,0.000,0.001,30
2019-10-08 08:00,0.000,0.001,30
2019-10-08 08:15,0.000,0.000,30
2019-10-08 08:30,0.000,0.001,30
2019-10-08 08:45,0.000,0.000,30
2019-10-08 09:00,0.000,0.000,30
2019-10-08 09:15,0.000,0.000,30
2019-10-08 09:30,0.000,0.000,30
2019-10-08 09:45,0.000,0.001,30
2019-10-08 10:00,0.001,0.005,30
2019-10-08 10:15,0.004,0.016,30
2019-10-08 10:30,0.000,0.000,30
2019-10-08 10:45,0.001,0.004,30
2019-10-08 11:00,0.001,0.006,30
2019-10-08 11:15,0.000,0.000,30
2019-10-08 11:30,0.000,0.000,30
2019-10-08 11:45,0.000,0.000,30
2019-10-08 12:00,0.000,0.000,30
2019-10-08 12:15,0.000,0.000,30
2019-10-08 12:30,0.000,0.001,30
2019-10-08 12:45,0.000,0.000,30
2019-10-08 13:00,0.002,0.010,30
2019-10-08 13:15,0.006,0.025,30
2019-10-08 13:30,0.002,0.007,30
2019-10-08 13:45,0.000,0.000,30
2019-10-08 14:00,0.000,0.000,30
2019-10-08 14:15,0.000,0.000,30
2019-10-08 14:30,0.000,0.000,30
2019-10-08 14:45,0.000,0.000,30
2019-10-08 15:00,0.000,0.000,30
2019-10-08 15:15,0.000,0.000,30
2019-10-08 15:30,0.000,0.001,30
2019-10-08 15:45,0.000,0.000,30
2019-10-08 16:00,0.000,0.000,30
2019-10-08 16:15,0.000,0.000,30
2019-10-08 16:30,0.000,0.000,30
2019-10-08 16:45,0.001,0.006,30
2019-10-08 17:00,0.025,0.101,30
2019-10-08 17:15,0.038,0.153,30
2019-10-08 17:30,0.002,0.007,30
2019-10-08 17:45,0.000,0.000,30
2019-10-08 18:00,0.000,0.000,30
2019-10-08 18:15,0.000,0.000,30
2019-10-08 18:30,0.000,0.000,30
2019-10-08 18:45,0.000,0.000,30
2019-10-08 19:00,0.000,0.000,30
2019-10-08 19:15,0.000,0.000,30
2019-10-08 19:30,0.000,0.000,30
2019-10-08 19:45,0.000,0.000,30
2019-10-08 20:00,0.000,0.000,30